Location: Auckland
(36.8670°S, 174.7670°E)
Time: 07:56:51
(UTC+12:00)

A-11 Canister half - Pass Details

Date: 21 July 2019
Orbit: 1526 x 1682 km, 47.3° (Epoch: 24 August)

Event Time Altitude Azimuth Distance (km) Brightness Sun altitude
Rises 13:36:32 0° 242° (WSW) 4,787 11.5 30.3°
Reaches altitude 10° 13:39:41 10° 238° (WSW) 3,823 11.0 30.1°
Maximum altitude 13:49:20 59° 159° (SSE) 1,859 9.5 29.4°
Drops below altitude 10° 13:59:14 10° 80° (E) 3,925 11.1 28.6°
Sets 14:02:31 0° 76° (ENE) 4,922 11.5 28.4°
